Simultaneous Nadir Overpasses (SNOs) Predictions

Prediction of SNOs between AQUA and METOP-B Satellite Orbit:

Table of predicted SNOs for the next 14.0 days since TLE Epoch: 3/16/2024
Index Date (AQUA) Time (AQUA) Lat,Lon (AQUA) SZA (AQUA ) Date (METOP-B) Time (METOP-B) Lat,Lon (METOP-B) SZA (METOP-B ) Distance(km) Time Diff (sec)
1 03/17/2024 21:38:37 75.44,-147.66 76.29 03/17/2024 21:37:26 75.42,-147.65 76.29 1.77 71
2 03/17/2024 22:28:00 -75.48, 19.87 103.68 03/17/2024 22:28:06 -75.50, 19.92 103.66 2.97 6
3 03/17/2024 23:17:30 75.81,-173.44 76.66 03/17/2024 23:18:39 75.83,-171.72 76.64 46.97 69
4 03/20/2024 13:50:10 75.44, -30.52 75.23 03/20/2024 13:49:06 75.44, -30.53 75.24 0.39 64
5 03/20/2024 14:39:33 -75.48, 137.03 104.74 03/20/2024 14:39:47 -75.48, 136.90 104.74 3.59 14
6 03/20/2024 15:29:09 76.11, -57.22 75.92 03/20/2024 15:30:13 76.13, -53.67 75.86 94.59 64
7 03/23/2024 06:01:42 75.45, 86.61 74.19 03/23/2024 06:00:46 75.45, 86.57 74.19 1.19 56
8 03/23/2024 06:51:06 -75.54,-105.97 105.74 03/23/2024 06:51:26 -75.54,-105.85 105.75 3.39 20
9 03/25/2024 22:13:13 75.48,-156.29 73.15 03/25/2024 22:12:26 75.46,-156.36 73.14 3.06 47
10 03/25/2024 23:02:37 -75.56, 11.14 106.78 03/25/2024 23:03:06 -75.54, 11.22 106.80 2.95 29
11 03/28/2024 14:24:42 75.51, -39.21 72.14 03/28/2024 14:24:04 75.50, -39.16 72.13 1.62 38
12 03/28/2024 15:14:05 -75.53, 128.37 107.85 03/28/2024 15:14:45 -75.54, 128.28 107.85 2.68 40



Historial Predications of SNOs between AQUA and METOP-B
